This is the latest recevied weather packets stored in our database for station/object CT2IRJ-11. If no packets are shown the sender has not sent any weather packets the latest 1 day(s).
| Time | Temp. | Humidity | Pressure | Rain* | Wind** | Luminosity | Snow |
|---|---|---|---|---|---|---|---|
| 1778030009 | 9.44° C | 91% | 1015.2 hPa | 0 mm | - | 0 W/m² | - |
| 1778029709 | 9.44° C | 91% | 1015.6 hPa | 0 mm | - | 0 W/m² | - |
| 1778029109 | 8.89° C | 91% | 1015.2 hPa | 0 mm | - | 0 W/m² | - |
| 1778028809 | 9.44° C | 91% | 1015.6 hPa | 0 mm | - | 0 W/m² | - |
| 1778028510 | 8.89° C | 91% | 1015.2 hPa | 0 mm | - | 0 W/m² | - |
| 1778028211 | 8.89° C | 91% | 1015.2 hPa | 0 mm | - | 0 W/m² | - |
| 1778027312 | 9.44° C | 90% | 1015.6 hPa | 0 mm | - | 0 W/m² | - |
| 1778027013 | 10° C | 90% | 1015.6 hPa | 0 mm | - | 0 W/m² | - |
| 1778026711 | 10° C | 90% | 1015.6 hPa | 0 mm | - | 0 W/m² | - |
| 1778025810 | 10° C | 90% | 1015.6 hPa | 0 mm | - | 0 W/m² | - |
| 1778024910 | 10.56° C | 90% | 1015.9 hPa | 0 mm | - | 0 W/m² | - |
| 1778023410 | 10.56° C | 89% | 1015.9 hPa | 0 mm | - | 0 W/m² | - |
| 1778023111 | 11.11° C | 89% | 1016.3 hPa | 0 mm | - | 0 W/m² | - |
| 1778021611 | 11.67° C | 89% | 1016.3 hPa | 0 mm | - | 0 W/m² | - |
| 1778020110 | 11.67° C | 88% | 1016.6 hPa | 0 mm | - | 0 W/m² | - |
| 1778019810 | 11.67° C | 88% | 1016.9 hPa | 0 mm | - | 0 W/m² | - |
| 1778018310 | 11.67° C | 87% | 1016.6 hPa | 0 mm | - | 0 W/m² | - |
| 1778017411 | 12.22° C | 85% | 1016.9 hPa | 0 mm | - | 0 W/m² | - |
| 1778016510 | 12.22° C | 84% | 1016.6 hPa | 0 mm | - | 0 W/m² | - |
| 1778015910 | 12.78° C | 83% | 1016.9 hPa | 0 mm | - | 0 W/m² | - |
| 1778014710 | 12.78° C | 81% | 1017.3 hPa | 0 mm | - | 0 W/m² | - |
| 1778011710 | 14.44° C | 76% | 1016.6 hPa | 0 mm | - | 0 W/m² | - |
| 1778011410 | 14.44° C | 76% | 1016.3 hPa | 0 mm | - | 0 W/m² | - |
| 1778010210 | 15° C | 75% | 1016.6 hPa | 0 mm | - | 0 W/m² | - |
| 1778009310 | 15.56° C | 73% | 1016.3 hPa | 0 mm | - | 3 W/m² | - |
* Rain latest hour (hover to see other rain measurements)
** Current wind speed in m/s (hover to see current wind gust speed)